GW4960 Weather Reports


time (UTC)temp
C
wind
direction
speed
KPH
gust
KPH
rain 1hr
cm
rain 24hr
cm
rain mn
cm
humidity
%
barometer
mb
20260508140004 18 138 3.2 4.8 0.00 0.10 0.00 47 1019.8
20260508135223 17 61 3.2 3.2 0.00 0.10 0.00 55 1019.7
20260508134723 17 2 3.2 6.4 0.00 0.10 0.00 53 1019.7
20260508133723 17 45 1.6 4.8 0.00 0.13 0.00 57 1019.7
20260508132743 17 334 4.8 9.7 0.00 0.13 0.00 55 1019.6
20260508131723 17 314 3.2 4.8 0.00 0.13 0.00 57 1019.6
20260508130723 16 349 1.6 3.2 0.00 0.13 0.00 58 1019.5
20260508125723 16 179 6.4 6.4 0.00 0.13 0.00 62 1019.5
20260508124723 15 36 4.8 6.4 0.00 0.13 0.00 64 1019.4
20260508123723 15 8 3.2 4.8 0.00 0.13 0.00 65 1019.2
20260508122743 15 42 3.2 6.4 0.00 0.13 0.00 69 1019.1
20260508121723 13 28 1.6 3.2 0.00 0.15 0.00 76 1019.0
20260508120723 12 10 3.2 4.8 0.00 0.15 0.00 84 1018.8
20260508115723 10 0.0 0.0 0.00 0.18 0.00 96 1018.8
20260508114723 9 0.0 0.0 0.00 0.28 0.00 96 1018.7
20260508113723 9 0.0 0.0 0.00 0.36 0.00 96 1018.5
20260508112723 8 0.0 0.0 0.00 0.36 0.00 96 1018.3
20260508111724 8 0.0 0.0 0.00 0.36 0.00 96 1018.1
20260508110723 8 0.0 0.0 0.00 0.38 0.00 96 1018.0
20260508105744 8 0.0 0.0 0.00 0.43 0.00 96 1017.8
20260508104723 8 0.0 0.0 0.00 0.48 0.00 95 1017.7
20260508103723 8 0.0 0.0 0.00 0.51 0.00 95 1017.5
20260508102804 8 0.0 0.0 0.00 0.51 0.00 95 1017.2
20260508101723 8 0.0 0.0 0.00 0.51 0.00 95 1017.0
20260508100724 8 0.0 0.0 0.00 0.51 0.00 95 1016.9
20260508095743 8 0.0 0.0 0.00 0.51 0.00 95 1016.8
20260508094723 8 0.0 0.0 0.00 0.51 0.00 95 1016.8
20260508093723 8 0.0 0.0 0.00 0.51 0.00 95 1016.8
20260508092723 8 0.0 0.0 0.00 0.51 0.00 95 1016.8
20260508091723 8 0.0 0.0 0.00 0.51 0.00 94 1016.8
20260508090723 8 0.0 0.0 0.00 0.51 0.00 94 1016.5
20260508085723 8 0.0 0.0 0.00 0.51 0.00 95 1016.5
20260508084724 8 0.0 0.0 0.00 0.51 0.00 95 1016.5
20260508083723 8 0.0 0.0 0.00 0.51 0.00 95 1016.5
20260508082804 8 0.0 0.0 0.00 0.53 0.00 95 1016.4
20260508081743 8 0.0 0.0 0.00 0.53 0.00 94 1016.2
20260508080723 8 0.0 0.0 0.00 0.53 0.00 94 1016.2
20260508075724 8 0.0 0.0 0.00 0.53 0.00 94 1016.1
20260508074723 8 0.0 0.0 0.00 0.53 0.00 93 1016.0
20260508073724 8 0.0 0.0 0.00 0.53 0.00 92 1016.0
20260508072743 8 0.0 0.0 0.00 0.56 0.00 91 1015.9
20260508071723 8 0.0 0.0 0.00 0.64 0.00 90 1015.9
20260508070824 9 0.0 0.0 0.00 0.69 0.00 90 1015.8
20260508065723 9 0.0 0.0 0.00 0.79 0.00 89 1015.7
20260508064724 10 0.0 0.0 0.00 0.91 0.00 89 1015.7
20260508063824 10 0.0 0.0 0.00 1.04 0.00 89 1015.6
20260508062823 10 0.0 0.0 0.00 1.14 0.00 88 1015.6
20260508061823 10 0.0 0.0 0.00 1.19 0.00 89 1015.7
20260508060824 10 0.0 0.0 0.00 1.22 0.00 89 1015.8
20260508055823 10 0.0 0.0 0.00 1.22 0.00 89 1015.8
20260508054823 11 64 1.6 1.6 0.00 1.24 0.00 88 1015.8
20260508053823 11 0.0 0.0 0.00 1.24 0.00 86 1015.7
20260508052903 11 0.0 0.0 0.00 1.40 0.00 85 1015.8
20260508051824 11 0.0 0.0 0.00 1.85 0.00 84 1015.7
20260508051604 11 0.0 0.0 0.00 1.88 0.00 84 1015.6
20260508050344 12 44 1.6 3.2 0.00 1.96 0.00 79 1015.6
20260508050023 12 33 1.6 1.6 0.00 2.01 0.00 78 1015.5
20260508045024 12 14 1.6 3.2 0.00 2.06 0.00 75 1015.4
20260508044023 12 235 1.6 3.2 0.00 2.06 0.00 76 1015.4
20260508043103 12 26 1.6 1.6 0.00 2.06 0.00 75 1015.2
20260508042023 13 60 0.0 1.6 0.00 2.06 0.00 75 1015.2
20260508041024 13 0.0 0.0 0.00 2.06 0.00 77 1015.3
20260508040024 13 0.0 0.0 0.00 2.06 0.00 75 1015.2
20260508035044 13 350 1.6 3.2 0.00 2.06 2.06 73 1015.2
20260508034023 13 11 1.6 1.6 0.00 2.06 2.06 75 1015.2
20260508033044 13 60 0.0 1.6 0.00 2.06 2.06 80 1015.1
20260508032024 13 0.0 0.0 0.00 2.06 2.06 80 1015.1
20260508031043 13 0.0 0.0 0.00 2.06 2.06 80 1015.1
20260508030024 13 0.0 0.0 0.00 2.06 2.06 85 1015.1
20260508025104 13 0.0 0.0 0.00 2.24 2.06 83 1015.0
20260508024024 14 0.0 0.0 0.00 2.67 2.06 83 1014.9
20260508023044 14 0.0 0.0 0.00 2.74 2.06 84 1014.8
20260508022023 14 0.0 0.0 0.00 2.74 2.06 82 1014.7
20260508021024 15 359 1.6 1.6 0.00 3.02 2.06 86 1014.6
20260508020023 15 354 0.0 1.6 0.00 3.17 2.06 91 1014.3
20260508015023 15 0.0 0.0 0.00 3.17 2.06 90 1014.3
20260508014124 15 95 1.6 1.6 0.00 3.20 2.06 89 1013.9
20260508013024 15 28 3.2 3.2 0.00 3.63 2.06 90 1013.7
20260508012024 15 257 3.2 3.2 0.00 3.68 2.06 90 1013.5
20260508011023 15 272 3.2 4.8 0.00 3.81 2.06 89 1013.3
20260508010023 16 40 1.6 3.2 0.00 3.91 2.06 89 1013.3
20260508005024 16 278 3.2 4.8 0.00 4.14 2.06 89 1013.0
20260508004024 16 0.0 3.2 0.00 4.19 2.06 89 1012.9
20260508003023 16 352 1.6 3.2 0.00 4.19 2.06 88 1012.6
20260508002024 16 7 0.0 1.6 0.00 4.27 2.06 88 1012.3
20260508001024 16 60 0.0 1.6 0.00 4.42 2.06 88 1012.0
20260508000024 16 274 3.2 4.8 0.00 4.57 2.06 87 1011.8
20260507235024 17 276 4.8 8.0 0.00 4.70 2.06 86 1011.6
20260507234024 17 148 4.8 6.4 0.00 4.75 2.06 85 1011.7
20260507233024 17 279 6.4 6.4 0.00 4.75 2.06 86 1011.3
20260507232024 17 283 6.4 9.7 0.00 4.75 2.06 84 1011.2
20260507231024 17 310 6.4 8.0 0.00 4.75 2.06 84 1010.9
20260507230024 18 267 4.8 8.0 0.00 4.75 2.06 83 1010.8
20260507225024 18 248 9.7 11.3 0.00 4.75 2.06 81 1010.3
20260507224024 19 328 4.8 8.0 0.00 4.75 2.06 81 1010.2
20260507223024 20 127 6.4 11.3 0.00 4.75 2.06 81 1009.9
20260507222024 22 284 6.4 8.0 0.00 4.75 2.06 75 1009.6
20260507221024 25 247 3.2 4.8 0.00 4.75 2.06 65 1009.0
20260507220024 25 115 4.8 8.0 0.00 4.75 2.06 64 1009.0
20260507215024 25 103 8.0 9.7 0.00 4.75 2.06 62 1008.9
20260507214024 26 223 4.8 8.0 0.00 4.75 2.06 62 1008.9
20260507213044 26 126 8.0 11.3 0.00 4.75 2.06 62 1008.8
20260507212024 25 125 8.0 11.3 0.00 4.75 2.06 63 1008.6
20260507211024 25 119 11.3 12.9 0.00 4.75 2.06 63 1008.5
20260507210024 24 145 9.7 11.3 0.00 4.75 2.06 69 1008.5
20260507205024 24 129 9.7 11.3 0.00 4.75 2.06 69 1008.5
20260507204024 23 107 6.4 9.7 0.00 4.75 2.06 70 1008.6
20260507203044 23 97 9.7 14.5 0.00 4.75 2.06 67 1008.8
20260507202044 25 120 9.7 12.9 0.00 4.75 2.06 62 1008.5
20260507201024 25 133 8.0 9.7 0.00 4.75 2.06 61 1008.4
20260507200024 26 101 9.7 9.7 0.00 4.75 2.06 57 1008.6
20260507195024 26 154 11.3 16.1 0.00 4.75 2.06 59 1008.8
20260507194024 26 137 8.0 11.3 0.00 4.75 2.06 59 1008.9
20260507193224 26 155 8.0 12.9 0.00 4.75 2.06 58 1008.9
20260507192224 26 115 8.0 12.9 0.00 4.75 2.06 62 1009.2
20260507191224 26 124 9.7 12.9 0.00 4.75 2.06 61 1009.3
20260507190225 25 9.7 11.3 0.00 4.75 2.06 63 1009.6